Rhodes, Greece

12:11 PM EEST on August 20, 2017 (GMT +0300)
Diagoras

Weather History for LGRP - October, 2012

Change the Weather History Date:

Saturday, October 20, 2012

  Actual Average Record
Temperature  
Mean Temperature 76 °F -  
Max Temperature 81 °F 71 °F 82 °F (2015)
Min Temperature 71 °F 58 °F 55 °F (1997)
Cooling Degree Days 11    
Growing Degree Days 26 (Base 50)    
Moisture  
Dew Point 64 °F    
Average Humidity 67    
Maximum Humidity 83    
Minimum Humidity 45    
Precipitation  
Precipitation 0.00 in 0.11 in - ()
Sea Level Pressure  
Sea Level Pressure 29.87 in    
Wind  
Wind Speed 10 mph ()    
Max Wind Speed 20 mph    
Max Gust Speed -    
Visibility 6.1 miles    
Events      
Averages and records for this station are not official NWS values.
T = Trace of Precipitation, MM = Missing Value Source: Averaged Metar Reports

Daily Weather History Graph

Daily Weather History Graph

Search for Another Location

Airport or City:

Trip Planner

Search our weather history database for the weather conditions in past years. The results will help you decide how hot, cold, wet, or windy it might be!

Date:

Astronomy

Oct. 20, 2012 Rise Set
Actual Time 7:19 AM EEST 6:24 PM EEST
Civil Twilight 6:53 AM EEST 6:50 PM EEST
Nautical Twilight 6:23 AM EEST 7:20 PM EEST
Astronomical Twilight 5:53 AM EEST 7:50 PM EEST
Moon 12:33 PM EEST 10:53 PM EEST
Length of Visible Light 11h 57m
Length of Day
11h 05m
Waxing Crescent, 31% of the Moon is Illuminated
Oct 20
Waxing Crescent
Oct 22
First Quarter
Oct 29
Full
Nov 7
Last Quarter
Nov 14
New

Hourly Weather History & Observations

Time (EEST) Temp. Heat Index Dew Point Humidity Pressure Visibility Wind Dir Wind Speed Gust Speed Precip Events Conditions
12:20 AM 75.2 °F - 66.2 °F 73% 29.92 in - SW 9.2 mph - N/A   Clear
12:50 AM 75.2 °F - 66.2 °F 73% 29.92 in - SW 10.4 mph - N/A   Clear
1:20 AM 75.2 °F - 66.2 °F 73% 29.92 in - SW 10.4 mph - N/A   Clear
1:50 AM 73.4 °F - 64.4 °F 73% 29.92 in - SW 8.1 mph - N/A   Clear
2:20 AM 73.4 °F - 64.4 °F 73% 29.92 in - SW 8.1 mph - N/A   Clear
3:00 AM 73 °F - 65 °F 70% 29.91 in 6 mi SW 6.9 mph - -  
3:20 AM 73.4 °F - 64.4 °F 73% 29.89 in - SW 6.9 mph - N/A   Clear
3:50 AM 71.6 °F - 66.2 °F 83% 29.89 in - SW 5.8 mph - N/A   Clear
4:20 AM 71.6 °F - 66.2 °F 83% 29.89 in - SW 5.8 mph - N/A   Clear
4:50 AM 71.6 °F - 66.2 °F 83% 29.89 in - SW 3.5 mph - N/A   Clear
5:20 AM 71.6 °F - 66.2 °F 83% 29.89 in - SW 3.5 mph - N/A   Clear
5:50 AM 73.4 °F - 68.0 °F 83% 29.89 in - SW 5.8 mph - N/A   Clear
6:20 AM 73.4 °F - 68.0 °F 83% 29.89 in - SW 5.8 mph - N/A   Clear
6:50 AM 73.4 °F - 68.0 °F 83% 29.89 in - WSW 5.8 mph - N/A   Clear
7:20 AM 73.4 °F - 68.0 °F 83% 29.89 in - WSW 5.8 mph - N/A   Clear
7:50 AM 73.4 °F - 68.0 °F 83% 29.89 in - SW 8.1 mph - N/A   Clear
8:20 AM 73.4 °F - 68.0 °F 83% 29.89 in - SW 8.1 mph - N/A   Clear
8:50 AM 73.4 °F - 68.0 °F 83% 29.89 in - SSW 6.9 mph - N/A   Clear
9:00 AM 74 °F - 67 °F 73% 29.91 in 6 mi SSW 6.9 mph - -   Scattered Clouds
9:20 AM 75.2 °F - 68.0 °F 78% 29.89 in - WNW 11.5 mph - N/A   Clear
9:50 AM 75.2 °F - 66.2 °F 73% 29.89 in - WNW 11.5 mph - N/A   Clear
10:20 AM 77.0 °F - 66.2 °F 69% 29.89 in - WNW 9.2 mph - N/A   Clear
10:50 AM 78.8 °F - 64.4 °F 61% 29.92 in - West 10.4 mph - N/A   Clear
11:20 AM 78.8 °F - 64.4 °F 61% 29.92 in - West 10.4 mph - N/A   Clear
11:50 AM 78.8 °F - 64.4 °F 61% 29.89 in - WSW 16.1 mph - N/A   Clear
12:20 PM 78.8 °F - 64.4 °F 61% 29.89 in - WSW 16.1 mph - N/A   Clear
12:50 PM 80.6 °F 82.3 °F 64.4 °F 58% 29.89 in - WSW 17.3 mph - N/A   Clear
1:20 PM 80.6 °F 82.3 °F 64.4 °F 58% 29.89 in - WSW 17.3 mph - N/A   Clear
1:50 PM 80.6 °F 81.8 °F 62.6 °F 54% 29.86 in - WSW 17.3 mph - N/A   Clear
2:20 PM 80.6 °F 81.8 °F 62.6 °F 54% 29.86 in - WSW 18.4 mph - N/A   Clear
2:50 PM 80.6 °F 81.8 °F 62.6 °F 54% 29.86 in 6.2 mi WSW 19.6 mph - N/A   Partly Cloudy
3:00 PM 81 °F - 63 °F 45% 29.87 in 6 mi WSW 19.6 mph - -   Scattered Clouds
3:20 PM 80.6 °F 81.8 °F 62.6 °F 54% 29.86 in 6.2 mi WSW 19.6 mph - N/A   Partly Cloudy
3:50 PM 80.6 °F 82.3 °F 64.4 °F 58% 29.86 in 6.2 mi WSW 16.1 mph - N/A   Partly Cloudy
4:20 PM 80.6 °F 82.3 °F 64.4 °F 58% 29.86 in 6.2 mi WSW 17.3 mph - N/A   Partly Cloudy
4:50 PM 78.8 °F - 64.4 °F 61% 29.83 in - WSW 17.3 mph - N/A   Clear
5:20 PM 77.0 °F - 62.6 °F 61% 29.83 in - WSW 17.3 mph - N/A   Clear
5:50 PM 77.0 °F - 62.6 °F 61% 29.83 in - WSW 17.3 mph - N/A   Clear
6:20 PM 75.2 °F - 62.6 °F 65% 29.83 in - WSW 17.3 mph - N/A   Clear
6:50 PM 73.4 °F - 60.8 °F 65% 29.83 in - SW 17.3 mph - N/A   Clear
7:20 PM 73.4 °F - 60.8 °F 65% 29.83 in - SW 17.3 mph - N/A   Clear
7:50 PM 73.4 °F - 60.8 °F 65% 29.83 in - WSW 17.3 mph - N/A   Clear
8:20 PM 73.4 °F - 60.8 °F 65% 29.83 in - WSW 15.0 mph - N/A   Clear
8:50 PM 73.4 °F - 59.0 °F 61% 29.83 in - WSW 15.0 mph - N/A   Clear
9:00 PM 73 °F - 58 °F 50% 29.85 in 6 mi WSW 15.0 mph - -  
9:20 PM 73.4 °F - 59.0 °F 61% 29.83 in - WSW 12.7 mph - N/A   Clear
9:50 PM 73.4 °F - 59.0 °F 61% 29.83 in - WSW 12.7 mph - N/A   Clear
10:20 PM 73.4 °F - 59.0 °F 61% 29.83 in - WSW 9.2 mph - N/A   Clear
10:50 PM 73.4 °F - 59.0 °F 61% 29.83 in - SW 9.2 mph - N/A   Clear
11:20 PM 73.4 °F - 59.0 °F 61% 29.83 in - SW 6.9 mph - N/A   Clear
11:50 PM 71.6 °F - 59.0 °F 64% 29.83 in - SW 6.9 mph - N/A   Clear